Location: Ferintosh
(52.7647°N, 112.9692°W)
Time: 15:33:26
(UTC+00:00)

Transit 2A - Pass Details

Date: 18 May 2024
Orbit: 592 x 959 km, 66.7° (Epoch: 23 June)

Event Time Altitude Azimuth Distance (km) Brightness Sun altitude
Rises 07:05:30 0° 197° (SSW) 2,913 - -17.4°
Reaches altitude 10° 07:07:45 10° 190° (S) 2,050 - -17.4°
Exits shadow 07:10:36 33° 164° (SSE) 1,133 6.3 -17.5°
Maximum altitude 07:12:09 45° 119° (ESE) 950 6.2 -17.5°
Drops below altitude 10° 07:17:01 10° 48° (NE) 2,269 9.0 -17.5°
Sets 07:19:36 0° 42° (NE) 3,263 10.0 -17.5°
